Location: Albany
(35.0170°S, 117.8920°E)
Time: 04:02:07
(UTC+08:00)

Vanguard 1 - Pass Details

Date: 27 January 2021
Orbit: 649 x 3833 km, 34.2° (Epoch: 26 February)

Event Time Altitude Azimuth Distance (km) Brightness Sun altitude
Rises 00:17:56 0° 302° (WNW) 4,814 - -36.4°
Reaches altitude 10° 00:21:54 10° 307° (NW) 3,356 - -36.4°
Maximum altitude 00:29:04 46° 18° (NNE) 1,198 - -36.4°
Drops below altitude 10° 00:33:47 10° 91° (E) 2,214 - -36.4°
Sets 00:35:54 0° 97° (E) 3,032 - -36.3°
